Moline, IL

5:54 AM CDT on May 24, 2017 (GMT -0500)
Quad-City International

Weather History for KMLI - August, 2013

Change the Weather History Date:

Friday, August 30, 2013

  Actual Average Record
Temperature  
Mean Temperature 85 °F 71 °F  
Max Temperature 98 °F 82 °F 98 °F (1953)
Min Temperature 72 °F 61 °F 40 °F (1915)
Degree Days  
Heating Degree Days 0 0  
Month to date heating degree days 4 0  
Since 1 June heating degree days 38 21  
Since 1 July heating degree days 11 2  
Cooling Degree Days 20 7  
Month to date cooling degree days 250 263  
Year to date cooling degree days 801 877  
Since 1 June cooling degree days 711 801  
Growing Degree Days 35 (Base 50)    
Moisture  
Dew Point 71 °F    
Average Humidity 66    
Maximum Humidity 93    
Minimum Humidity 38    
Precipitation  
Precipitation 0.00 in 0.15 in 1.76 in (1965)
Month to date precipitation 0.76 4.38  
Year to date precipitation 32.61 27.02  
Snow  
Snow 0.00 in 0.00 in - ()
Month to date snowfall 0.0 0.0  
Since 1 June snowfall 0.0 0.0  
Since 1 July snowfall 0.0 0.0  
Snow Depth 0.00 in    
Sea Level Pressure  
Sea Level Pressure 29.84 in    
Wind  
Wind Speed 6 mph (SSW)    
Max Wind Speed 25 mph    
Max Gust Speed 30 mph    
Visibility 9 miles    
Events      
T = Trace of Precipitation, MM = Missing Value Source: NWS Daily Summary

Daily Weather History Graph

Daily Weather History Graph

Search for Another Location

Airport or City:

Trip Planner

Search our weather history database for the weather conditions in past years. The results will help you decide how hot, cold, wet, or windy it might be!

Date:

Astronomy

Aug. 30, 2013 Rise Set
Actual Time 6:26 AM CDT 7:37 PM CDT
Civil Twilight 5:57 AM CDT 8:06 PM CDT
Nautical Twilight 5:23 AM CDT 8:40 PM CDT
Astronomical Twilight 4:47 AM CDT 9:16 PM CDT
Moon 1:03 AM CDT (8/30) 3:55 PM CDT (8/30)
Length of Visible Light 14h 08m
Length of Day
13h 11m
Waning Crescent, 29% of the Moon is Illuminated
Aug 30
Waning Crescent
Sep 5
New
Sep 12
First Quarter
Sep 19
Full
Sep 26
Last Quarter

Hourly Weather History & Observations

Time (CDT) Temp. Heat Index Dew Point Humidity Pressure Visibility Wind Dir Wind Speed Gust Speed Precip Events Conditions
12:52 AM 72.0 °F - 69.1 °F 91% 29.95 in 9.0 mi ESE 4.6 mph - N/A   Clear
1:52 AM 73.0 °F - 70.0 °F 90% 29.94 in 8.0 mi East 3.5 mph - N/A   Clear
2:52 AM 73.0 °F - 70.0 °F 90% 29.94 in 8.0 mi ENE 3.5 mph - N/A   Clear
3:52 AM 73.9 °F - 71.1 °F 91% 29.92 in 8.0 mi Calm Calm - N/A   Clear
4:52 AM 73.9 °F - 71.1 °F 91% 29.91 in 7.0 mi Calm Calm - N/A   Clear
5:52 AM 75.0 °F - 72.0 °F 90% 29.89 in 7.0 mi Calm Calm - N/A   Partly Cloudy
6:52 AM 75.0 °F - 72.0 °F 90% 29.90 in 5.0 mi Calm Calm - N/A   Partly Cloudy
7:52 AM 77.0 °F - 73.0 °F 88% 29.89 in 6.0 mi Calm Calm - N/A   Clear
8:52 AM 82.0 °F 87.9 °F 73.9 °F 76% 29.88 in 9.0 mi SW 9.2 mph - N/A   Clear
9:52 AM 86.0 °F 93.8 °F 73.9 °F 67% 29.88 in 10.0 mi West 6.9 mph - N/A   Clear
10:52 AM 88.0 °F 97.5 °F 75.0 °F 65% 29.87 in 10.0 mi SW 5.8 mph - N/A   Clear
11:52 AM 91.9 °F 103.2 °F 75.0 °F 58% 29.85 in 10.0 mi Variable 4.6 mph - N/A   Clear
12:52 PM 95.0 °F 102.5 °F 71.1 °F 46% 29.83 in 10.0 mi SW 9.2 mph - N/A   Clear
1:52 PM 97.0 °F 104.8 °F 71.1 °F 43% 29.82 in 10.0 mi West 8.1 mph - N/A   Clear
2:52 PM 98.1 °F 104.4 °F 69.1 °F 39% 29.81 in 10.0 mi West 11.5 mph - N/A   Clear
3:52 PM 97.0 °F 102.8 °F 69.1 °F 40% 29.79 in 10.0 mi SW 6.9 mph - N/A   Clear
4:52 PM 97.0 °F 102.8 °F 69.1 °F 40% 29.77 in 10.0 mi WSW 10.4 mph - N/A   Clear
5:52 PM 96.1 °F 99.9 °F 66.9 °F 38% 29.75 in 10.0 mi WSW 6.9 mph - N/A   Clear
6:52 PM 91.9 °F 99.5 °F 72.0 °F 52% 29.77 in 10.0 mi SSW 3.5 mph - N/A   Clear
7:52 PM 86.0 °F 90.7 °F 70.0 °F 59% 29.77 in 10.0 mi Calm Calm - N/A   Clear
8:52 PM 84.0 °F 88.4 °F 70.0 °F 63% 29.77 in 10.0 mi Calm Calm - N/A   Clear
9:52 PM 82.9 °F 87.5 °F 71.1 °F 67% 29.79 in 10.0 mi NE 15.0 mph 26.5 mph N/A   Overcast
10:52 PM 78.1 °F - 69.1 °F 74% 29.81 in 10.0 mi East 18.4 mph - N/A   Partly Cloudy
11:52 PM 75.0 °F - 66.9 °F 76% 29.79 in 10.0 mi SE 10.4 mph - N/A   Clear